Weather History for Morris, MN

Change the Weather History Date:

Saturday, September 21, 2013

  Actual Average Record
Temperature  
Mean Temperature 50 °F -  
Max Temperature 66 °F 66 °F 84 °F (2005)
Min Temperature 35 °F 43 °F 30 °F (1999)
Degree Days  
Heating Degree Days 14    
Growing Degree Days 0 (Base 50)    
Moisture  
Dew Point 42 °F    
Average Humidity 78    
Maximum Humidity 100    
Minimum Humidity 46    
Precipitation  
Precipitation 0.00 in - - ()
Sea Level Pressure  
Sea Level Pressure 29.95 in    
Wind  
Wind Speed 4 mph (East)    
Max Wind Speed 9 mph    
Max Gust Speed -    
Visibility 9 miles    
Events Fog    
Averages and records for this station are not official NWS values.
T = Trace of Precipitation, MM = Missing Value Source: NWS Daily Summary

Daily Weather History Graph

Daily Weather History Graph

Search for Another Location

Airport:

Trip Planner

Search our weather history database for the weather conditions in past years. The results will help you decide how hot, cold, wet, or windy it might be!

Date:

Astronomy

Sep. 21, 2013 Rise Set
Actual Time 7:09 AM CDT 7:22 PM CDT
Civil Twilight 6:40 AM CDT 7:52 PM CDT
Nautical Twilight 6:05 AM CDT 8:27 PM CDT
Astronomical Twilight 5:29 AM CDT 9:02 PM CDT
Moon 8:24 PM CDT (9/21) 9:38 AM CDT (9/21)
Length of Visible Light 13h 12m
Length of Day
12h 12m
Waning Gibbous, 94% of the Moon is Illuminated
Sep 21
Waning Gibbous
Sep 26
Last Quarter
Oct 4
New
Oct 11
First Quarter
Oct 18
Full

Hourly Weather History & Observations

Time (CDT) Temp. Windchill Dew Point Humidity Pressure Visibility Wind Dir Wind Speed Gust Speed Precip Events Conditions
12:07 AM 41.0 °F 38.0 °F 39.2 °F 93% 29.97 in 10.0 mi WNW 4.6 mph - N/A   Clear
12:27 AM 41.0 °F 38.0 °F 39.2 °F 93% 29.97 in 10.0 mi WNW 4.6 mph - N/A   Clear
12:47 AM 41.0 °F 38.0 °F 39.2 °F 93% 29.97 in 10.0 mi WNW 4.6 mph - N/A   Clear
1:07 AM 39.2 °F 35.9 °F 39.2 °F 100% 29.97 in 10.0 mi NW 4.6 mph - N/A   Clear
1:27 AM 39.2 °F 35.9 °F 37.4 °F 93% 29.98 in 10.0 mi WNW 4.6 mph - N/A   Clear
1:47 AM 39.2 °F 35.0 °F 37.4 °F 93% 29.98 in 10.0 mi WNW 5.8 mph - N/A   Clear
2:07 AM 39.2 °F 35.9 °F 37.4 °F 93% 29.98 in 10.0 mi WNW 4.6 mph - N/A   Clear
2:27 AM 39.2 °F 35.9 °F 37.4 °F 93% 29.98 in 10.0 mi WNW 4.6 mph - N/A   Clear
2:47 AM 39.2 °F 37.0 °F 37.4 °F 93% 29.98 in 10.0 mi NW 3.5 mph - N/A   Clear
3:07 AM 37.4 °F 34.9 °F 37.4 °F 100% 29.98 in 10.0 mi WNW 3.5 mph - N/A   Clear
3:27 AM 37.4 °F 32.8 °F 37.4 °F 100% 29.98 in 10.0 mi WNW 5.8 mph - N/A   Clear
3:47 AM 37.4 °F 32.8 °F 37.4 °F 100% 29.98 in 10.0 mi WNW 5.8 mph - N/A   Clear
4:07 AM 37.4 °F 33.8 °F 37.4 °F 100% 29.98 in 10.0 mi NW 4.6 mph - N/A   Clear
4:27 AM 37.4 °F 33.8 °F 37.4 °F 100% 29.98 in 10.0 mi NW 4.6 mph - N/A   Clear
4:47 AM 37.4 °F 33.8 °F 35.6 °F 93% 29.98 in 10.0 mi NW 4.6 mph - N/A   Clear
5:07 AM 37.4 °F 34.9 °F 37.4 °F 100% 29.99 in 10.0 mi NW 3.5 mph - N/A   Clear
5:27 AM 37.4 °F - 35.6 °F 93% 29.99 in 10.0 mi Calm Calm - N/A   Clear
5:47 AM 37.4 °F - 37.4 °F 100% 29.99 in 10.0 mi Calm Calm - N/A   Clear
6:07 AM 35.6 °F - 35.6 °F 100% 29.99 in 7.0 mi Calm Calm - N/A   Clear
6:27 AM 35.6 °F - 35.6 °F 100% 29.99 in 4.0 mi Calm Calm - N/A   Clear
6:47 AM 37.4 °F - 35.6 °F 93% 29.99 in 1.8 mi Calm Calm - N/A   Mist
7:07 AM 35.6 °F - 35.6 °F 100% 29.99 in 2.0 mi Calm Calm - N/A   Clear
7:27 AM 35.6 °F - 35.6 °F 100% 30.00 in 3.0 mi Calm Calm - N/A   Clear
7:47 AM 35.6 °F - 35.6 °F 100% 30.00 in 0.5 mi Calm Calm - N/A Fog Fog
8:07 AM 39.2 °F - 39.2 °F 100% 30.01 in 0.8 mi Calm Calm - N/A   Mist
8:27 AM 42.8 °F - 42.8 °F 100% 30.01 in 5.0 mi Calm Calm - N/A   Clear
8:47 AM 46.4 °F - 44.6 °F 93% 30.00 in 10.0 mi Calm Calm - N/A   Clear
9:07 AM 50.0 °F - 48.2 °F 94% 30.01 in 10.0 mi Calm Calm - N/A   Clear
9:27 AM 51.8 °F - 46.4 °F 82% 30.01 in 10.0 mi Calm Calm - N/A   Clear
9:47 AM 53.6 °F - 46.4 °F 77% 30.01 in 10.0 mi Calm Calm - N/A   Clear
10:07 AM 55.4 °F - 44.6 °F 67% 30.01 in 10.0 mi East 3.5 mph - N/A   Clear
10:27 AM 55.4 °F - 44.6 °F 67% 30.01 in 10.0 mi Calm Calm - N/A   Clear
10:47 AM 55.4 °F - 44.6 °F 67% 30.01 in 10.0 mi Calm Calm - N/A   Clear
11:07 AM 57.2 °F - 44.6 °F 63% 30.01 in 10.0 mi East 3.5 mph - N/A   Scattered Clouds
11:27 AM 57.2 °F - 42.8 °F 59% 30.01 in 10.0 mi Calm Calm - N/A   Scattered Clouds
11:47 AM 59.0 °F - 44.6 °F 59% 30.00 in 10.0 mi WSW 4.6 mph - N/A   Scattered Clouds
12:07 PM 59.0 °F - 44.6 °F 59% 30.00 in 10.0 mi Calm Calm - N/A   Mostly Cloudy
12:27 PM 59.0 °F - 44.6 °F 59% 30.00 in 10.0 mi Calm Calm - N/A   Overcast
12:47 PM 60.8 °F - 44.6 °F 55% 29.99 in 10.0 mi Calm Calm - N/A   Scattered Clouds
1:07 PM 60.8 °F - 44.6 °F 55% 29.98 in 10.0 mi SE 3.5 mph - N/A   Clear
1:27 PM 62.6 °F - 44.6 °F 52% 29.97 in 10.0 mi Calm Calm - N/A   Clear
1:47 PM 62.6 °F - 44.6 °F 52% 29.96 in 10.0 mi Calm Calm - N/A   Clear
2:07 PM 64.4 °F - 44.6 °F 49% 29.95 in 10.0 mi Calm Calm - N/A   Clear
2:27 PM 64.4 °F - 44.6 °F 49% 29.94 in 10.0 mi SW 3.5 mph - N/A   Clear
2:47 PM 64.4 °F - 44.6 °F 49% 29.93 in 10.0 mi Calm Calm - N/A   Clear
3:07 PM 64.4 °F - 44.6 °F 49% 29.93 in 10.0 mi Calm Calm - N/A   Clear
3:27 PM 64.4 °F - 44.6 °F 49% 29.92 in 10.0 mi East 4.6 mph - N/A   Clear
3:47 PM 64.4 °F - 44.6 °F 49% 29.91 in 10.0 mi East 4.6 mph - N/A   Clear
4:07 PM 66.2 °F - 44.6 °F 46% 29.91 in 10.0 mi ESE 4.6 mph - N/A   Clear
4:27 PM 66.2 °F - 44.6 °F 46% 29.90 in 10.0 mi Calm Calm - N/A   Clear
4:47 PM 66.2 °F - 44.6 °F 46% 29.90 in 10.0 mi East 3.5 mph - N/A   Clear
5:07 PM 66.2 °F - 44.6 °F 46% 29.89 in 10.0 mi ESE 5.8 mph - N/A   Clear
5:27 PM 66.2 °F - 44.6 °F 46% 29.89 in 10.0 mi East 5.8 mph - N/A   Clear
5:47 PM 64.4 °F - 44.6 °F 49% 29.89 in 10.0 mi ESE 5.8 mph - N/A   Clear
6:07 PM 64.4 °F - 44.6 °F 49% 29.88 in 10.0 mi East 6.9 mph - N/A   Clear
6:27 PM 62.6 °F - 46.4 °F 55% 29.88 in 10.0 mi ESE 6.9 mph - N/A   Clear
6:47 PM 60.8 °F - 46.4 °F 59% 29.88 in 10.0 mi ESE 5.8 mph - N/A   Clear
7:07 PM 57.2 °F - 46.4 °F 67% 29.88 in 10.0 mi ESE 5.8 mph - N/A   Clear
7:27 PM 53.6 °F - 46.4 °F 77% 29.87 in 10.0 mi ESE 6.9 mph - N/A   Clear
7:47 PM 51.8 °F - 46.4 °F 82% 29.88 in 10.0 mi ESE 5.8 mph - N/A   Clear
8:07 PM 50.0 °F - 44.6 °F 82% 29.88 in 10.0 mi East 6.9 mph - N/A   Clear
8:27 PM 48.2 °F - 44.6 °F 87% 29.88 in 10.0 mi East 6.9 mph - N/A   Clear
8:47 PM 48.2 °F - 46.4 °F 93% 29.88 in 10.0 mi East 8.1 mph - N/A   Clear
9:07 PM 48.2 °F - 46.4 °F 93% 29.88 in 10.0 mi East 8.1 mph - N/A   Clear
9:27 PM 48.2 °F - 46.4 °F 93% 29.89 in 10.0 mi ESE 8.1 mph - N/A   Clear
9:47 PM 48.2 °F - 44.6 °F 87% 29.89 in 10.0 mi East 8.1 mph - N/A   Clear
10:07 PM 48.2 °F - 46.4 °F 93% 29.89 in 10.0 mi ESE 8.1 mph - N/A   Clear
10:27 PM 48.2 °F - 46.4 °F 93% 29.89 in 10.0 mi ESE 8.1 mph - N/A   Clear
10:47 PM 48.2 °F - 46.4 °F 93% 29.89 in 10.0 mi ESE 6.9 mph - N/A   Clear
11:06 PM 48.2 °F - 46.4 °F 93% 29.89 in 10.0 mi East 8.1 mph - N/A   Clear
11:27 PM 48.2 °F - 46.4 °F 93% 29.88 in 10.0 mi East 9.2 mph - N/A   Clear
11:47 PM 48.2 °F - 46.4 °F 93% 29.88 in 10.0 mi ESE 8.1 mph - N/A   Clear